Regional Weather Roundup
Issued by NWS Wakefield, VA

Home | Current Version | Previous Version | Graphics & Text | Print | Product List | Glossary On
Versions: 1 2 3 4 5 6 7 8 9 10 11 12 13 14 15 16 17 18 19 20 21 22 23 24 25 26 27 28 29 30 31 32 33 34 35 36 37 38 39 40 41 42 43 44 45 46 47 48 49
000
ASUS41 KAKQ 230610
RWRAKQ

REGIONAL WEATHER ROUNDUP
NATIONAL WEATHER SERVICE WAKEFIELD VA
200 AM EDT WED JUL 23 2014

Note: "fair" indicates few or no clouds below 12,000 feet with no
significant weather and/or obstructions to visibility. * = Denotes
station may not report precipitation (e.g., rain,snow,etc.),
thunder or fog.

VAZ042-051-052>054-056-230700-
NORTHERN VIRGINIA

CITY           SKY/WX    TMP DP  RH WIND       PRES   REMARKS
WASH NATIONAL  PTCLDY    77  68  73 S9        30.06F
DULLES         CLEAR     73  68  84 S6        30.05F
FORT BELVOIR   CLEAR     73  69  87 SE3       30.06F
QUANTICO       CLEAR     77  70  79 SW12      30.06F
FREDERICKSBRG* CLEAR     74  69  83 S8        30.05F
STAFFORD*      CLEAR     72  72 100 CALM      30.10F
WARRENTON      CLEAR     73  73  98 CALM      30.06S
CULPEPER*      CLEAR    N/A N/A N/A CALM      30.06F HAZE
MANASSAS*      CLEAR     73  72  94 CALM      30.06S
LEESBURG*      CLEAR     73  72  94 S3        30.06F
WINCHESTER     CLEAR     72  70  94 S5        30.05S
$$

VAZ048-049-060>072-079>083-230700-
CENTRAL AND SOUTH CENTRAL VIRGINIA...AND NORTH CENTRAL NORTH CAROLINA

CITY           SKY/WX    TMP DP  RH WIND       PRES   REMARKS
RICHMOND       CLEAR     72  68  87 S3        30.07F
CHESTERFIELD*  CLEAR     72  63  73 CALM      30.09F
HANOVER        CLEAR     70  67  90 CALM      30.08F
TAPPAHANNOCK*  CLEAR     72  69  89 CALM      30.07F
CHARLOTTSVILLE CLEAR     72  70  93 SW3       30.08F
ORANGE*        CLEAR     70  68  94 S3        30.08F
LOUISA*        CLEAR     72  70  94 CALM      30.06F
FARMVILLE*     CLEAR     72  70  94 CALM      30.06F FOG
SOUTH HILL*    CLEAR     72  72 100 CALM      30.13F
ROANOKE RAPIDS CLOUDY    66  64  94 CALM      30.08F
RALEIGH        PTCLDY    72  70  93 CALM      30.09F
$$

VAZ088>098-230700-
SOUTHEAST VIRGINIA

CITY           SKY/WX    TMP DP  RH WIND       PRES   REMARKS
NORFOLK        CLEAR     75  72  90 S5        30.06F
VIRGINIA BEACH PTCLDY    74  72  93 SW3       30.06F
NORFOLK NAVAL  PTCLDY    77  73  87 S3        30.07F
WEST POINT*    CLEAR     73  70  91 CALM      30.08F
NEWPORT NEWS   CLOUDY    75  71  87 CALM      30.06F FOG
LANGLEY AFB    CLOUDY    74  74 100 W1        30.06F
FORT EUSTIS    MOCLDY    76  76 100 SW2       30.05F
WILLIAMSBURG*  CLEAR     75  73  94 CALM      30.07F
FRANKLIN*      MOCLDY    72 N/A N/A CALM      30.07F
WAKEFIELD      CLOUDY    73  70  90 CALM      30.07F
$$

VAZ020-022-025-037-045-230700-
WESTERN AND SOUTHWEST VIRGINIA

CITY           SKY/WX    TMP DP  RH WIND       PRES   REMARKS
STAUNTON*      CLOUDY    71  67  88 S3        30.12F
HOT SPRINGS VA NOT AVBL
LYNCHBURG      CLEAR     70  69  97 SW3       30.11F
DANVILLE       CLEAR     71  68  90 CALM      30.10F
MARTINSVILLE   CLEAR     68  67  98 CALM      30.13F
ROANOKE        CLEAR     71  68  90 CALM      30.13F
BLACKSBURG     CLEAR     68  68 100 CALM      30.19F FOG
DUBLIN*        CLEAR     67  67 100 CALM      30.18F
MARION*        CLEAR     65  65 100 CALM      30.21F FOG
HILLSVILLE*    CLEAR     67  66  97 S5        30.19F
RICHLANDS*     CLEAR     72  66  81 S3        30.18F
WISE*          CLEAR     70  68  94 SW5       30.19F
ABINGDON*      CLEAR     70  68  93 CALM      30.16F
$$

MDZ021>025-VAZ099-100-230700-
SOUTHERN MARYLAND AND THE DELMARVA PENINSULA

CITY           SKY/WX    TMP DP  RH WIND       PRES   REMARKS
PATUXENT RIVER CLEAR     73  70  90 S3        30.06F
BAY BRIDGE APT   N/A     77  70  78 S6        30.05F
LEONARDTOWN    CLEAR     72  68  88 CALM      30.08F
DOVER          CLEAR     70  68  94 S8        30.04F
GEORGETOWN     CLEAR     68  65  90 SE9       30.08F
EASTON         CLEAR     73  69  88 CALM      30.10F
CAMBRIDGE      CLEAR     72  68  88 CALM      30.06F
SALISBURY      NOT AVBL
OCEAN CITY     PTCLDY    74  72  93 SW7       30.06F
WALLOPS ISLAND CLEAR     74  72  93 SW5       30.07F
ACCOMACK*        N/A     70  68  94 CALM      30.07F FOG
$$

NCZ012>017-030>032-230700-
EASTERN NORTH CAROLINA

CITY           SKY/WX    TMP DP  RH WIND       PRES   REMARKS
ELIZABETH CITY MOCLDY    73  72  94 CALM      30.06F FOG
AHOSKIE*       PTCLDY    71  70  96 CALM      30.07F
EDENTON*       MOCLDY    76  74  96 CALM      30.07F
CURRITUCK*     PTCLDY    74  71  88 CALM      30.07F
KILL DEVIL HLS LGT RAIN  74  73  96 SW5       30.07F
MANTEO         NOT AVBL
CAPE HATTERAS  CLOUDY    78  75  90 SW5       30.08F
GOLDSBORO      CLOUDY    75  75 100 SW3       30.06F
WASHINGTON     CLOUDY    75  74  95 SW3       30.08F
GREENVILLE     PTCLDY    73  73 100 CALM      30.08F
NEW BERN       PTCLDY    76  73  91 CALM      30.09F
WILMINGTON     CLEAR     74  72  93 CALM      30.09S
$$

VAZ048-230700-
ELSEWHERE

CITY           SKY/WX    TMP DP  RH WIND       PRES   REMARKS
HARRISBURG PA  PTCLDY    76  68  76 S7        30.03F
BALTIMORE      CLEAR     72  66  81 SW3       30.04F
ANNAPOLIS      CLEAR     76  68  76 S6        30.05F
ANDREWS AFB    CLEAR     72  69  92 S7        30.05F
WILMINGTON DE  CLEAR     72  66  81 S6        30.05F
PHILADELPHIA   PTCLDY    73  64  73 S6        30.05F
WILDWOOD NJ*   PTCLDY    70  64  83 S5        30.07F
ATLANTIC CITY  MOCLDY    70  68  93 S5        30.06F
HENDERSON NC   FOG       72  70  95 CALM      30.09F VSB 1/2
GREENSBORO     PTCLDY    71  69  93 CALM      30.10F
ROCKY MOUNT    CLOUDY    74  72  93 CALM      30.08F
FAYETTEVILLE   CLEAR     76  74  93 S5        30.07F
CHARLOTTE      MOCLDY    71  69  93 CALM      30.11F
$$

VAZ100-230700-
MARINE

STATION/POSITION TIME  TEMP    WIND        PRES    WAVE   SWELL
                       AIR SEA DIR/SP/G            HT/PER HT/PER
                 (UTC) (F)     (DEG/KT/KT) (MB)    (FT/S) (FT/S)
44066 TX TWR #4  0600   73 73  220/ 10/ 12 1017.7F   2/ 7   2/ 7
CAPE MAY NJ      0600   71 76  220/  4/  5 1018.0F
LEWES DE         0600   70 69  240/  4/  5 1018.0S
15NM E FENWICK I 0600   75 76              1018.1F   2/ 7
OCEAN-CITY-INLET 0600   73 73  220/  6/  7 1017.7S
WACHAPREAGUE VA  0600   75 82  140/  2/  4 1018.1S
THOMAS POINT MD  0600   77 79  190/ 17/ 18 1017.8F
GOOSES REEF MD   0600   76     210/ 12/ 14 1018.3S
COVE POINT MD    0600   75     210/  6/  8 1017.9F
SOLOMONS ISLAND  0600      81                N/A
BISHOPS HEAD MD  0600   77 80  180/  9/ 10 1017.7F
PINEY POINT MD   0600          190/  8/ 10   N/A
POTOMAC MD       0600   77     210/  8/ 10 1017.4F
CAMBRIDGE MD     0600   73 80  160/  2/  4 1017.8R
LEWISETTA VA     0600   74 81  200/  6/  7 1017.7F
RAPPAHANNOCK LGT 0600          160/  4/  5 1018.8F
STINGRAY PT      0600   78     190/  6/  6 1019.0F
YORK RVR RNG VA  0600   77     230/  3/  3 1017.6F
YORKTOWN VA      0600   75 80  290/  2/  2 1017.8F
JAMESTOWN VA     0600   74     280/  2/  4   N/A
DOMINION TERM VA 0600   76     210/  6/  7 1018.0F
KIPTOPEKE VA     0600      80  140/  4/  5   N/A
CHES BAY BRIDGE  0600   76 77  190/  4/  5 1017.5F
CAPE HENRY VA    0600   74     180/  2/  4 1017.1F
WILLOUBY STN VA  0600          200/  6/  6 1017.3F
S CRANEY ISL VA  0600          170/  4/  6 1017.9F
CAPE HENRY BUOY  0600      75                N/A     2/ 8
1ST LANDING BUOY 0600   76     200/  4/  4 1017.9F
CAPE CHARLES BUO 0600      76                N/A     2/11
OFFSHORE WE BUOY 0600      77                N/A     2/11
64NM E OF VA BCH 0600   77 78  210/  6/  8 1018.3F   3/ 9   2/ 9
DUCK PIER NC     0600   77 73  200/  7/ 11 1017.5F
44056 DUCK FRF   0600                        N/A     2/11
OREGON INLET NC  0600   78 80  240/  9/ 13 1018.4F
HATTERAS NC      0600   78 82  210/  5/  7 1019.0F
DIAMOND SHLS NC  0600          VRB 16/ 17  1018.4F   4/ 8   2/ 8
CAPE LOOKOUT NC  0500   78     240/  7/ 10 1018.8S
$$


USA.gov is the U.S. government's official web portal to all federal, state and local government web resources and services.